EW0364 Weather Reports


Display with metric or nautical units.
time (UTC)temp
F
wind
direction
speed
MPH
gust
MPH
rain 1hr
in
rain 24hr
in
rain mn
in
humidity
%
barometer
mb
20210928080815 70 258 4.0 9.0 0.00 0.00 0.00 86 1008.8
20210928075915 70 248 5.0 12.0 0.00 0.00 0.00 86 1008.9
20210928075015 70 260 5.0 10.0 0.00 0.00 0.00 86 1009.0
20210928074115 70 244 4.0 11.0 0.00 0.00 0.00 85 1009.0
20210928073215 70 234 4.0 13.0 0.00 0.00 0.00 85 1009.0
20210928072315 70 230 4.0 13.0 0.00 0.00 0.00 85 1009.0
20210928071415 70 237 5.0 13.0 0.00 0.00 0.00 85 1009.0
20210928070515 70 239 4.0 11.0 0.00 0.00 0.00 85 1009.0
20210928065615 70 238 4.0 11.0 0.00 0.00 0.00 84 1009.1
20210928064715 70 245 5.0 13.0 0.00 0.00 0.00 84 1009.2
20210928063815 70 238 5.0 12.0 0.00 0.00 0.00 84 1009.3
20210928062916 70 234 5.0 12.0 0.00 0.00 0.00 83 1009.4
20210928062015 70 234 4.0 10.0 0.00 0.00 0.00 83 1009.5
20210928061115 70 240 5.0 12.0 0.00 0.00 0.00 82 1009.6
20210928060215 70 231 6.0 13.0 0.00 0.00 0.00 82 1009.7
20210928055315 71 240 7.0 16.0 0.00 0.00 0.00 82 1009.9
20210928054415 70 256 5.0 14.0 0.00 0.00 0.00 82 1009.9
20210928053515 71 254 6.0 14.0 0.00 0.00 0.00 82 1009.9
20210928052615 71 242 7.0 13.0 0.00 0.00 0.00 82 1009.9
20210928051715 70 238 5.0 14.0 0.00 0.00 0.00 82 1010.0
20210928050816 70 241 6.0 13.0 0.00 0.00 0.00 82 1009.9
20210928045915 70 230 5.0 14.0 0.00 0.00 0.00 81 1010.1
20210928045015 70 244 6.0 15.0 0.00 0.00 0.00 81 1010.1
20210928044115 71 243 5.0 13.0 0.00 0.00 0.00 80 1010.2
20210928043215 71 249 6.0 13.0 0.00 0.00 0.00 80 1010.2
20210928042314 71 237 5.0 14.0 0.00 0.00 0.00 79 1010.4
20210928041415 71 247 5.0 15.0 0.00 0.00 0.00 78 1010.3
20210928040514 71 236 7.0 15.0 0.00 0.00 0.00 78 1010.4
20210928035615 71 233 7.0 15.0 0.00 0.00 0.00 77 1010.4
20210928034715 71 228 7.0 23.0 0.00 0.00 0.00 77 1010.4
20210928033814 71 239 6.0 15.0 0.00 0.00 0.00 77 1010.4
20210928032914 71 238 5.0 15.0 0.00 0.00 0.00 77 1010.5
20210928032014 71 247 6.0 15.0 0.00 0.00 0.00 76 1010.6
20210928031115 71 248 7.0 15.0 0.00 0.00 0.00 76 1010.6
20210928030214 71 242 5.0 13.0 0.00 0.00 0.00 76 1010.6
20210928025314 71 246 6.0 19.0 0.00 0.00 0.00 77 1010.7
20210928024414 71 253 6.0 19.0 0.00 0.00 0.00 77 1010.7
20210928023514 71 242 6.0 13.0 0.00 0.00 0.00 77 1010.7
20210928022614 71 245 6.0 16.0 0.00 0.00 0.00 77 1010.7
20210928021714 71 234 6.0 15.0 0.00 0.00 0.00 76 1010.7
20210928020814 71 247 7.0 15.0 0.00 0.00 0.00 75 1010.7
20210928015914 71 244 6.0 18.0 0.00 0.00 0.00 75 1010.8
20210928015014 71 262 7.0 18.0 0.00 0.00 0.00 74 1010.7
20210928014115 71 258 7.0 18.0 0.00 0.00 0.00 74 1010.7
20210928013214 71 249 7.0 18.0 0.00 0.00 0.00 74 1010.7
20210928012314 71 255 7.0 18.0 0.00 0.00 0.00 74 1010.6
20210928011414 71 256 8.0 19.0 0.00 0.00 0.00 73 1010.7
20210928010514 71 252 7.0 19.0 0.00 0.00 0.00 74 1010.7
20210928005614 71 262 6.0 15.0 0.00 0.00 0.00 74 1010.5
20210928004714 71 243 8.0 18.0 0.00 0.00 0.00 74 1010.5
20210928003814 71 241 6.0 17.0 0.00 0.00 0.00 74 1010.3
20210928002914 71 238 7.0 20.0 0.00 0.00 0.00 74 1010.3
20210928002014 71 242 7.0 15.0 0.00 0.00 0.00 74 1010.3
20210928001114 71 240 8.0 15.0 0.00 0.00 0.00 75 1010.1
20210928000214 71 242 7.0 15.0 0.00 0.00 0.00 76 1010.3
20210927235315 71 246 7.0 17.0 0.00 0.00 0.00 76 1010.0
20210927234414 71 250 7.0 17.0 0.00 0.00 0.00 76 1009.9
20210927233514 71 253 7.0 18.0 0.00 0.00 0.00 75 1010.0
20210927232614 71 255 7.0 16.0 0.00 0.00 0.00 75 1009.9
20210927231714 70 230 7.0 18.0 0.00 0.00 0.00 76 1009.8
20210927230814 70 249 6.0 18.0 0.00 0.00 0.00 77 1009.8
20210927225914 70 240 6.0 14.0 0.00 0.00 0.00 77 1009.9
20210927225014 70 255 5.0 13.0 0.00 0.00 0.00 76 1009.8
20210927224114 70 255 6.0 14.0 0.00 0.00 0.00 76 1009.9
20210927223214 70 254 6.0 14.0 0.00 0.00 0.00 75 1009.8
20210927222315 70 246 5.0 12.0 0.00 0.00 0.00 75 1009.7
20210927221414 71 239 6.0 14.0 0.00 0.00 0.00 75 1009.6
20210927220514 71 253 7.0 14.0 0.00 0.00 0.00 75 1009.7
20210927215614 71 250 5.0 14.0 0.00 0.00 0.00 76 1009.7
20210927214715 71 230 6.0 14.0 0.00 0.00 0.00 78 1009.7
20210927213814 71 229 8.0 20.0 0.00 0.00 0.00 77 1009.7
20210927212914 71 224 7.0 20.0 0.00 0.00 0.00 76 1009.6
20210927212014 72 224 6.0 13.0 0.00 0.00 0.00 74 1009.6
20210927211114 72 232 5.0 13.0 0.00 0.00 0.00 73 1009.7
20210927210214 72 239 6.0 17.0 0.00 0.00 0.00 72 1009.8
20210927205314 73 218 7.0 20.0 0.00 0.00 0.00 69 1009.9
20210927204413 74 224 5.0 15.0 0.00 0.00 0.00 68 1010.0
20210927203513 73 223 5.0 14.0 0.00 0.00 0.00 68 1010.0
20210927202613 73 243 5.0 16.0 0.00 0.00 0.00 69 1010.2
20210927201714 73 222 7.0 16.0 0.00 0.00 0.00 70 1010.2
20210927200813 73 207 6.0 16.0 0.00 0.00 0.00 68 1010.3
20210927195913 73 226 6.0 18.0 0.00 0.00 0.00 69 1010.3
20210927195013 73 216 6.0 18.0 0.00 0.00 0.00 69 1010.4
20210927194113 73 203 6.0 14.0 0.00 0.00 0.00 72 1010.4
20210927193213 73 203 8.0 15.0 0.00 0.00 0.00 71 1010.5
20210927192313 73 201 7.0 15.0 0.00 0.00 0.00 66 1010.5
20210927191413 73 205 7.0 15.0 0.00 0.00 0.00 65 1010.5
20210927190513 74 209 7.0 14.0 0.00 0.00 0.00 65 1010.6
20210927185613 74 203 6.0 17.0 0.00 0.00 0.00 62 1010.7
20210927184713 76 207 5.0 13.0 0.00 0.00 0.00 62 1010.8
20210927183813 76 235 4.0 9.0 0.00 0.00 0.00 58 1010.8
20210927182913 76 241 4.0 10.0 0.00 0.00 0.00 57 1010.9
20210927182013 76 236 4.0 11.0 0.00 0.00 0.00 57 1010.9
20210927181113 76 203 4.0 11.0 0.00 0.00 0.00 59 1010.9
20210927180213 75 248 4.0 9.0 0.00 0.00 0.00 60 1011.0
20210927175313 75 293 5.0 12.0 0.00 0.00 0.00 59 1011.3
20210927174413 75 261 5.0 10.0 0.00 0.00 0.00 60 1011.6
20210927173513 74 267 5.0 12.0 0.00 0.00 0.00 60 1011.7
20210927172613 74 257 4.0 8.0 0.00 0.00 0.00 59 1011.8
20210927171714 74 252 4.0 8.0 0.00 0.00 0.00 59 1012.0
20210927170813 74 262 5.0 12.0 0.00 0.00 0.00 59 1012.1
20210927165913 74 238 5.0 11.0 0.00 0.00 0.00 60 1012.0
20210927165013 73 244 5.0 10.0 0.00 0.00 0.00 63 1012.2
20210927164113 72 246 6.0 11.0 0.00 0.00 0.00 63 1012.4
20210927163213 72 249 5.0 11.0 0.00 0.00 0.00 63 1012.4
20210927162313 72 251 5.0 11.0 0.00 0.00 0.00 63 1012.5
20210927161414 72 256 5.0 14.0 0.00 0.00 0.00 65 1012.4
20210927160513 72 254 6.0 15.0 0.00 0.00 0.00 62 1012.5
20210927155613 72 241 6.0 15.0 0.00 0.00 0.00 61 1012.6
20210927154713 72 275 6.0 11.0 0.00 0.00 0.00 62 1012.5
20210927153813 72 256 6.0 13.0 0.00 0.00 0.00 61 1012.5
20210927152913 71 257 6.0 12.0 0.00 0.00 0.00 63 1012.6
20210927152013 71 255 6.0 12.0 0.00 0.00 0.00 63 1012.8
20210927151113 71 258 4.0 11.0 0.00 0.00 0.00 61 1013.0
20210927150213 70 271 4.0 10.0 0.00 0.00 0.00 60 1013.1
20210927145313 70 237 3.0 10.0 0.00 0.00 0.00 61 1013.2
20210927144413 69 228 4.0 10.0 0.00 0.00 0.00 59 1013.2
20210927143513 70 219 4.0 9.0 0.00 0.00 0.00 63 1013.2
20210927142613 69 206 4.0 12.0 0.00 0.00 0.00 64 1013.4
20210927141713 69 167 3.0 7.0 0.00 0.00 0.00 68 1013.4
20210927140813 68 178 4.0 10.0 0.00 0.00 0.00 68 1013.4
20210927135914 68 187 4.0 9.0 0.00 0.00 0.00 69 1013.4
20210927135013 68 190 5.0 10.0 0.00 0.00 0.00 68 1013.4
20210927134113 68 225 3.0 7.0 0.00 0.00 0.00 69 1013.4
20210927133213 67 223 3.0 7.0 0.00 0.00 0.00 67 1013.5
20210927132313 66 274 1.0 4.0 0.00 0.00 0.00 68 1013.6
20210927131413 66 274 1.0 2.0 0.00 0.00 0.00 70 1013.6
20210927130513 65 275 1.0 3.0 0.00 0.00 0.00 73 1013.7
20210927125613 64 275 1.0 4.0 0.00 0.00 0.00 72 1013.8
20210927124713 64 275 1.0 3.0 0.00 0.00 0.00 74 1013.7
20210927123812 63 275 2.0 6.0 0.00 0.00 0.00 76 1013.8
20210927122913 62 276 1.0 4.0 0.00 0.00 0.00 79 1013.8
20210927122012 60 275 0.0 2.0 0.00 0.00 0.00 86 1013.5
20210927121112 59 0 0.0 0.0 0.00 0.00 0.00 89 1013.9
20210927120212 56 0 0.0 0.0 0.00 0.00 0.00 94 1013.8
20210927115312 54 0 0.0 0.0 0.00 0.01 0.00 94 1013.8
20210927114414 54 0 0.0 0.0 0.00 0.02 0.00 94 1013.7
20210927113512 53 0 0.0 0.0 0.00 0.03 0.00 94 1013.6
20210927112612 52 0 0.0 0.0 0.00 0.03 0.00 94 1013.6
20210927111712 52 0 0.0 0.0 0.00 0.03 0.00 93 1013.6
20210927110812 52 0 0.0 0.0 0.00 0.03 0.00 93 1013.5
20210927105912 52 0 0.0 0.0 0.00 0.03 0.00 92 1013.3
20210927105012 52 0 0.0 0.0 0.00 0.03 0.00 92 1013.3
20210927104112 53 0 0.0 0.0 0.00 0.03 0.00 92 1013.3
20210927103212 53 0 0.0 0.0 0.00 0.03 0.00 92 1013.3
20210927102312 53 0 0.0 0.0 0.00 0.03 0.00 92 1013.2
20210927101412 53 0 0.0 0.0 0.00 0.03 0.00 92 1013.2
20210927100512 54 0 0.0 0.0 0.00 0.03 0.00 92 1013.1
20210927095612 53 0 0.0 0.0 0.00 0.03 0.00 93 1013.0
20210927094712 53 0 0.0 0.0 0.00 0.03 0.00 93 1013.0
20210927093812 53 0 0.0 0.0 0.00 0.03 0.00 93 1012.9
20210927092912 53 0 0.0 0.0 0.00 0.03 0.00 93 1012.9
20210927092012 53 0 0.0 0.0 0.00 0.03 0.00 93 1012.9
20210927091112 53 0 0.0 0.0 0.00 0.03 0.00 92 1012.9
20210927090212 53 0 0.0 0.0 0.00 0.03 0.00 92 1012.9
20210927085312 53 0 0.0 0.0 0.00 0.03 0.00 91 1012.8
20210927084412 54 0 0.0 0.0 0.00 0.04 0.00 91 1012.9
20210927083512 54 0 0.0 0.0 0.00 0.04 0.00 91 1012.9
20210927082613 54 0 0.0 0.0 0.00 0.07 0.00 90 1012.9
20210927081712 54 0 0.0 0.0 0.00 0.16 0.00 90 1012.8